GW4578 Weather Reports


time (UTC)temp
F
wind
direction
speed
knots
gust
knots
rain 1hr
in
rain 24hr
in
rain mn
in
humidity
%
barometer
mb
20260906212008 89 184 8.7 20.9 0.00 0.00 0.00 34 1012.7
20260906211512 89 87 9.6 20.0 0.00 0.00 0.00 34 1012.7
20260906211002 89 118 10.4 20.9 0.00 0.00 0.00 34 1012.9
20260906210503 90 121 11.3 20.9 0.00 0.00 0.00 32 1012.9
20260906210006 90 130 11.3 20.0 0.00 0.00 0.00 32 1013.0
20260906205505 90 164 10.4 21.7 0.00 0.00 0.00 32 1013.0
20260906205009 90 100 12.2 21.7 0.00 0.00 0.00 32 1013.0
20260906204510 90 138 13.9 20.9 0.00 0.00 0.00 31 1013.0
20260906204004 90 115 12.2 20.9 0.00 0.00 0.00 31 1013.0
20260906203503 91 143 13.0 22.6 0.00 0.00 0.00 30 1013.0
20260906203017 91 121 12.2 22.6 0.00 0.00 0.00 30 1012.9
20260906202508 92 81 10.4 23.5 0.00 0.00 0.00 30 1013.0
20260906202011 92 178 13.9 21.7 0.00 0.00 0.00 30 1012.9
20260906201516 91 130 10.4 19.1 0.00 0.00 0.00 30 1013.0
20260906201007 91 113 13.0 23.5 0.00 0.00 0.00 31 1012.8
20260906200508 91 120 13.9 23.5 0.00 0.00 0.00 31 1012.9
20260906200016 91 91 11.3 18.2 0.00 0.00 0.00 30 1012.9
20260906195503 92 126 10.4 15.6 0.00 0.00 0.00 30 1013.0
20260906195008 92 126 9.6 15.6 0.00 0.00 0.00 30 1013.0
20260906194508 91 138 11.3 14.8 0.00 0.00 0.00 31 1013.0
20260906194005 91 103 9.6 14.8 0.00 0.00 0.00 31 1013.1
20260906193504 91 119 7.0 13.0 0.00 0.00 0.00 31 1013.1
20260906193017 91 94 8.7 14.8 0.00 0.00 0.00 30 1013.1
20260906192505 92 154 8.7 14.8 0.00 0.00 0.00 30 1013.0
20260906192010 92 144 7.8 13.9 0.00 0.00 0.00 30 1013.0
20260906191519 93 151 7.8 14.8 0.00 0.00 0.00 29 1013.0
20260906191012 93 110 7.0 16.5 0.00 0.00 0.00 29 1013.1
20260906190509 93 101 8.7 16.5 0.00 0.00 0.00 29 1013.0
20260906190022 93 106 9.6 14.8 0.00 0.00 0.00 29 1013.1
20260906185507 93 76 7.0 12.2 0.00 0.00 0.00 29 1013.1
20260906185009 93 103 7.0 15.6 0.00 0.00 0.00 29 1013.1
20260906184523 93 111 8.7 15.6 0.00 0.00 0.00 29 1013.3
20260906184004 93 140 7.8 12.2 0.00 0.00 0.00 29 1013.3
20260906183504 93 163 5.2 9.6 0.00 0.00 0.00 28 1013.3
20260906183024 93 123 5.2 8.7 0.00 0.00 0.00 28 1013.4
20260906182504 93 108 4.3 8.7 0.00 0.00 0.00 29 1013.6
20260906182016 92 180 4.3 7.8 0.00 0.00 0.00 29 1013.7
20260906181519 92 217 2.6 8.7 0.00 0.00 0.00 30 1013.7
20260906181009 92 111 3.5 8.7 0.00 0.00 0.00 30 1013.7
20260906180510 91 19 5.2 8.7 0.00 0.00 0.00 31 1013.7
20260906180037 91 9 2.6 8.7 0.00 0.00 0.00 31 1013.9
20260906175511 91 24 3.5 7.8 0.00 0.00 0.00 33 1013.9
20260906175012 91 360 2.6 6.1 0.00 0.00 0.00 33 1014.0
20260906174524 90 57 1.7 6.1 0.00 0.00 0.00 33 1014.1
20260906174011 90 15 4.3 6.1 0.00 0.00 0.00 34 1014.1
20260906173509 89 351 1.7 5.2 0.00 0.00 0.00 34 1014.2
20260906173029 89 47 1.7 6.1 0.00 0.00 0.00 35 1014.3
20260906172504 89 54 4.3 6.1 0.00 0.00 0.00 34 1014.5
20260906172013 89 329 2.6 6.1 0.00 0.00 0.00 34 1014.6
20260906171514 89 36 3.5 6.1 0.00 0.00 0.00 35 1014.7
20260906171005 88 54 0.9 4.3 0.00 0.00 0.00 36 1014.7
20260906170505 88 74 2.6 6.1 0.00 0.00 0.00 36 1014.9
20260906170022 87 73 1.7 6.1 0.00 0.00 0.00 36 1015.0
20260906165515 87 70 1.7 6.1 0.00 0.00 0.00 36 1015.0
20260906165014 87 348 2.6 7.0 0.00 0.00 0.00 36 1015.1
20260906164529 87 9 1.7 7.0 0.00 0.00 0.00 36 1015.1
20260906164010 87 31 3.5 7.0 0.00 0.00 0.00 36 1015.1
20260906163510 87 69 2.6 7.8 0.00 0.00 0.00 37 1015.2
20260906163026 87 313 2.6 7.8 0.00 0.00 0.00 36 1015.2
20260906162513 87 22 3.5 7.0 0.00 0.00 0.00 37 1015.2
20260906162015 87 319 1.7 5.2 0.00 0.00 0.00 37 1015.2
20260906161528 86 22 3.5 5.2 0.00 0.00 0.00 38 1015.2
20260906161004 86 314 0.9 4.3 0.00 0.00 0.00 38 1015.2
20260906160508 86 69 1.7 7.0 0.00 0.00 0.00 38 1015.3
20260906160027 86 336 2.6 7.0 0.00 0.00 0.00 38 1015.2
20260906155510 85 18 1.7 6.1 0.00 0.00 0.00 39 1015.2
20260906155015 85 32 0.9 6.1 0.00 0.00 0.00 39 1015.2
20260906154524 85 350 2.6 4.3 0.00 0.00 0.00 39 1015.2
20260906154012 84 346 3.5 4.3 0.00 0.00 0.00 39 1015.2
20260906153515 84 16 2.6 4.3 0.00 0.00 0.00 40 1015.2
20260906153031 84 352 1.7 3.5 0.00 0.00 0.00 40 1015.2
20260906152511 84 65 1.7 2.6 0.00 0.00 0.00 41 1015.2
20260906152015 84 88 1.7 2.6 0.00 0.00 0.00 41 1015.1
20260906151530 83 65 0.0 1.7 0.00 0.00 0.00 41 1015.0
20260906151015 83 49 0.9 1.7 0.00 0.00 0.00 42 1015.0
20260906150515 82 66 0.9 1.7 0.00 0.00 0.00 43 1015.1
20260906150015 82 37 0.9 1.7 0.00 0.00 0.00 44 1015.2
20260906145507 81 31 0.0 1.7 0.00 0.00 0.00 45 1015.3
20260906145014 80 31 0.0 1.7 0.00 0.00 0.00 46 1015.3
20260906144522 79 31 0.0 1.7 0.00 0.00 0.00 47 1015.5
20260906144012 79 31 0.0 1.7 0.00 0.00 0.00 48 1015.5
20260906143513 78 31 0.0 1.7 0.00 0.00 0.00 49 1015.5
20260906143024 78 31 0.0 1.7 0.00 0.00 0.00 49 1015.6
20260906142514 77 31 0.9 1.7 0.00 0.00 0.00 50 1015.6
20260906142018 77 31 0.9 1.7 0.00 0.00 0.00 50 1015.6
20260906141530 76 31 0.9 1.7 0.00 0.00 0.00 52 1015.6
20260906141015 76 138 0.9 1.7 0.00 0.00 0.00 53 1015.6
20260906140517 75 138 0.0 1.7 0.00 0.00 0.00 55 1015.7
20260906140030 74 138 0.0 1.7 0.00 0.00 0.00 56 1015.6
20260906135513 73 138 0.9 1.7 0.00 0.00 0.00 58 1015.6
20260906135016 72 138 0.0 1.7 0.00 0.00 0.00 58 1015.6
20260906134518 71 138 0.0 1.7 0.00 0.00 0.00 60 1015.6
20260906134011 71 138 0.0 1.7 0.00 0.00 0.00 61 1015.6
20260906133514 70 138 0.0 0.0 0.00 0.00 0.00 63 1015.6
20260906133038 0 0.0 0.0 0.00 0.00 0.00 1015.6
20260906132514 0 0.0 0.0 0.00 0.00 0.00 1015.6
20260906132015 0 0.0 0.0 0.00 0.00 0.00 1015.6
20260906131531 0 0.0 0.0 0.00 0.00 0.00 1015.6
20260906131016 0 0.0 0.0 0.00 0.00 0.00 1015.5
20260906130513 0 0.0 0.0 0.00 0.00 0.00 1015.5
20260906130030 0 0.0 0.0 0.00 0.00 0.00 1015.4
20260906125515 0 0.0 0.0 0.00 0.00 0.00 1015.3
20260906125018 0 0.0 0.0 0.00 0.00 0.00 1015.3
20260906124535 0 0.0 0.0 0.00 0.00 0.00 1015.2
20260906124021 0 0.0 0.0 0.00 0.00 0.00 1015.1
20260906123521 0 0.0 0.0 0.00 0.00 0.00 1015.2
20260906123036 0 0.0 0.0 0.00 0.00 0.00 1015.2
20260906122514 0 0.0 0.0 0.00 0.00 0.00 1015.2
20260906122018 0 0.0 0.0 0.00 0.00 0.00 1015.2
20260906121536 0 0.0 0.0 0.00 0.00 0.00 1015.2
20260906121016 0 0.0 0.0 0.00 0.00 0.00 1015.1
20260906120517 0 0.0 0.0 0.00 0.00 0.00 1015.1
20260906120034 0 0.0 0.0 0.00 0.00 0.00 1015.0
20260906115516 0 0.0 0.0 0.00 0.00 0.00 1015.0
20260906115013 0 0.9 1.7 0.00 0.00 0.00 1015.0
20260906114542 67 242 0.9 3.5 0.00 0.00 0.00 66 1015.0
20260906114015 67 258 1.7 3.5 0.00 0.00 0.00 66 1014.9
20260906113513 67 134 0.0 3.5 0.00 0.00 0.00 65 1015.0
20260906113029 67 236 0.9 2.6 0.00 0.00 0.00 65 1015.0
20260906112515 66 274 2.6 2.6 0.00 0.00 0.00 66 1014.9
20260906112013 66 350 0.9 2.6 0.00 0.00 0.00 67 1015.0
20260906111516 65 81 1.7 2.6 0.00 0.00 0.00 69 1015.1
20260906111009 65 341 0.0 2.6 0.00 0.00 0.00 71 1014.8
20260906110511 64 261 0.9 3.5 0.00 0.00 0.00 72 1014.8
20260906110020 64 256 0.9 3.5 0.00 0.00 0.00 71 1014.8
20260906105516 64 244 0.9 3.5 0.00 0.00 0.00 70 1014.9
20260906105012 64 298 1.7 3.5 0.00 0.00 0.00 69 1014.9
20260906104526 64 319 0.9 1.7 0.00 0.00 0.00 70 1015.1
20260906104014 65 321 0.0 2.6 0.00 0.00 0.00 68 1015.1
20260906103515 65 321 0.9 2.6 0.00 0.00 0.00 67 1015.1
20260906103034 66 161 0.0 1.7 0.00 0.00 0.00 67 1015.0
20260906102521 66 161 0.0 1.7 0.00 0.00 0.00 67 1015.1
20260906102017 66 161 0.9 1.7 0.00 0.00 0.00 66 1015.1
20260906101531 67 171 0.0 1.7 0.00 0.00 0.00 66 1015.1
20260906101007 67 170 0.0 1.7 0.00 0.00 0.00 65 1015.1
20260906100509 67 173 0.0 2.6 0.00 0.00 0.00 65 1015.0
20260906100023 68 166 0.9 2.6 0.00 0.00 0.00 64 1014.9
20260906095511 68 258 0.9 2.6 0.00 0.00 0.00 64 1014.8
20260906095003 68 283 0.9 4.3 0.00 0.00 0.00 63 1014.8
20260906094504 69 17 2.6 4.3 0.00 0.00 0.00 61 1014.8
20260906094002 70 191 1.7 2.6 0.00 0.00 0.00 60 1014.8
20260906093504 71 191 1.7 5.2 0.00 0.00 0.00 60 1014.8
20260906093006 71 275 1.7 5.2 0.00 0.00 0.00 60 1014.7
20260906092503 71 344 2.6 5.2 0.00 0.00 0.00 60 1014.7
20260906092004 71 58 1.7 4.3 0.00 0.00 0.00 60 1014.7
20260906091519 71 315 1.7 7.8 0.00 0.00 0.00 60 1014.5
20260906091006 70 298 3.5 7.8 0.00 0.00 0.00 62 1014.3
20260906090508 69 291 4.3 7.8 0.00 0.00 0.00 64 1014.4
20260906090019 68 268 2.6 5.2 0.00 0.00 0.00 66 1014.3
20260906085510 67 275 2.6 3.5 0.00 0.00 0.00 67 1014.2
20260906085017 67 277 0.9 2.6 0.00 0.00 0.00 66 1014.2
20260906084525 67 148 0.0 1.7 0.00 0.00 0.00 65 1014.3
20260906084013 67 148 0.0 1.7 0.00 0.00 0.00 64 1014.3
20260906083505 67 146 0.9 1.7 0.00 0.00 0.00 62 1014.5
20260906083003 68 153 0.9 1.7 0.00 0.00 0.00 61 1014.6
20260906082503 69 155 0.9 1.7 0.00 0.00 0.00 60 1014.6
20260906082003 69 156 0.9 1.7 0.00 0.00 0.00 60 1014.7
20260906081530 70 159 0.0 1.7 0.00 0.00 0.00 59 1014.8
20260906081006 70 153 0.9 1.7 0.00 0.00 0.00 59 1014.8
20260906080505 70 154 0.0 1.7 0.00 0.00 0.00 60 1014.8
20260906080014 70 152 0.9 3.5 0.00 0.00 0.00 62 1014.8
20260906075507 69 155 1.7 9.6 0.00 0.00 0.00 62 1014.8
20260906075015 68 129 4.3 9.6 0.00 0.00 0.00 63 1014.9
20260906074523 67 120 3.5 9.6 0.00 0.00 0.00 62 1014.9
20260906074011 67 257 0.0 2.6 0.00 0.00 0.00 62 1014.6
20260906073511 67 257 0.9 3.5 0.00 0.00 0.00 61 1014.6
20260906073031 68 283 1.7 3.5 0.00 0.00 0.00 59 1014.6
20260906072514 69 157 0.9 1.7 0.00 0.00 0.00 59 1014.8
20260906072004 69 157 0.9 1.7 0.00 0.00 0.00 57 1014.9
20260906071529 69 155 0.0 2.6 0.00 0.00 0.00 58 1015.0
20260906071017 69 155 0.0 2.6 0.00 0.00 0.00 58 1014.9
20260906070515 69 155 0.9 2.6 0.00 0.00 0.00 58 1014.8
20260906070033 69 84 0.0 1.7 0.00 0.00 0.00 57 1014.7
20260906065505 70 352 0.0 1.7 0.00 0.00 0.00 56 1014.6
20260906065008 70 352 0.0 1.7 0.00 0.00 0.00 55 1014.5
20260906064518 70 352 0.0 1.7 0.00 0.00 0.00 55 1014.5
20260906064014 71 352 0.9 2.6 0.00 0.00 0.00 54 1014.6
20260906063520 71 360 0.9 2.6 0.00 0.00 0.00 53 1014.8
20260906063027 72 162 0.0 1.7 0.00 0.00 0.00 52 1014.9
20260906062512 72 360 0.0 1.7 0.00 0.00 0.00 51 1014.9
20260906062016 73 360 0.0 1.7 0.00 0.00 0.00 50 1014.9
20260906061527 74 166 0.9 1.7 0.00 0.00 0.00 50 1014.8
20260906061013 74 169 0.9 1.7 0.00 0.00 0.00 49 1014.7
20260906060517 74 159 0.0 1.7 0.00 0.00 0.00 48 1014.7
20260906060033 75 250 0.0 0.9 0.00 0.00 0.00 47 1014.7
20260906055520 76 248 0.0 1.7 0.00 0.00 0.00 47 1014.7
20260906055018 76 248 0.9 1.7 0.00 0.00 0.00 47 1014.9
20260906054552 76 248 0.9 1.7 0.00 0.00 0.00 46 1015.0
20260906054009 76 156 1.7 2.6 0.00 0.00 0.00 46 1015.2
20260906053510 76 157 1.7 5.2 0.00 0.00 0.00 46 1015.3
20260906053023 76 142 1.7 5.2 0.00 0.00 0.00 46 1015.4
20260906052510 76 155 1.7 3.5 0.00 0.00 0.00 46 1015.5
20260906052018 76 153 1.7 3.5 0.00 0.00 0.00 46 1015.5
20260906051527 76 132 0.0 3.5 0.00 0.00 0.00 46 1015.5
20260906051013 76 130 1.7 3.5 0.00 0.00 0.00 47 1015.5
20260906050513 76 199 0.9 4.3 0.00 0.00 0.00 47 1015.2
20260906050036 76 198 2.6 4.3 0.00 0.00 0.00 47 1015.2
20260906045515 76 155 1.7 4.3 0.00 0.00 0.00 47 1015.1
20260906045017 76 132 0.9 4.3 0.00 0.00 0.00 47 1015.1
20260906044532 76 167 2.6 4.3 0.00 0.00 0.00 47 1015.2
20260906044021 76 191 1.7 4.3 0.00 0.00 0.00 46 1015.2
20260906043519 77 192 0.9 4.3 0.00 0.00 0.00 46 1015.3
20260906043033 77 168 0.9 6.1 0.00 0.00 0.00 45 1015.4
20260906042511 77 168 0.0 6.1 0.00 0.00 0.00 45 1015.4
20260906042017 78 141 3.5 6.1 0.00 0.00 0.00 44 1015.4
20260906041528 78 104 1.7 2.6 0.00 0.00 0.00 43 1015.2
20260906041015 79 132 0.0 1.7 0.00 0.00 0.00 41 1015.1
20260906040503 80 136 0.0 1.7 0.00 0.00 0.00 41 1015.2
20260906040006 80 142 0.0 1.7 0.00 0.00 0.00 40 1015.2
20260906035504 81 134 0.0 1.7 0.00 0.00 0.00 40 1015.2
20260906035004 81 133 0.0 2.6 0.00 0.00 0.00 40 1015.2
20260906034513 81 99 1.7 3.5 0.00 0.00 0.00 40 1015.2
20260906034018 81 99 1.7 5.2 0.00 0.00 0.00 39 1015.3
20260906033517 82 78 2.6 5.2 0.00 0.00 0.00 38 1015.3
20260906033035 83 71 2.6 5.2 0.00 0.00 0.00 38 1015.3
20260906032507 83 128 1.7 5.2 0.00 0.00 0.00 40 1015.2
20260906032009 82 161 0.9 9.6 0.00 0.00 0.00 40 1015.2
20260906031525 81 193 2.6 9.6 0.00 0.00 0.00 41 1015.1
20260906031010 80 179 3.5 6.1 0.00 0.00 0.00 42 1015.0
20260906030512 79 198 2.6 6.1 0.00 0.00 0.00 42 1014.9
20260906030027 78 173 0.9 2.6 0.00 0.00 0.00 41 1014.9
20260906025504 78 267 0.9 2.6 0.00 0.00 0.00 41 1014.9
20260906025004 79 266 0.9 1.7 0.00 0.00 0.00 39 1014.9
20260906024510 80 274 0.9 1.7 0.00 0.00 0.00 38 1014.8
20260906024006 80 360 0.9 1.7 0.00 0.00 0.00 36 1014.7
20260906023505 81 294 0.9 1.7 0.00 0.00 0.00 36 1014.6
20260906023013 83 17 0.0 1.7 0.00 0.00 0.00 34 1014.4
20260906022507 84 68 0.0 1.7 0.00 0.00 0.00 33 1014.3
20260906022009 84 69 0.9 3.5 0.00 0.00 0.00 33 1014.2
20260906021522 85 61 0.9 6.1 0.00 0.00 0.00 34 1014.2
20260906021011 85 158 1.7 6.1 0.00 0.00 0.00 35 1014.2
20260906020512 85 144 1.7 7.8 0.00 0.00 0.00 32 1014.1
20260906020025 85 171 3.5 7.8 0.00 0.00 0.00 32 1014.0
20260906015519 85 138 3.5 5.2 0.00 0.00 0.00 30 1014.1
20260906015018 86 121 2.6 3.5 0.00 0.00 0.00 29 1014.1
20260906014531 86 139 0.9 6.1 0.00 0.00 0.00 29 1014.1
20260906014003 86 130 3.5 6.1 0.00 0.00 0.00 28 1014.1
20260906013506 86 134 2.6 6.1 0.00 0.00 0.00 28 1014.1
20260906013009 86 169 2.6 6.1 0.00 0.00 0.00 28 1014.2
20260906012508 86 190 2.6 7.0 0.00 0.00 0.00 28 1014.3
20260906012006 86 165 3.5 10.4 0.00 0.00 0.00 28 1014.2
20260906011518 87 167 3.5 10.4 0.00 0.00 0.00 28 1014.2
20260906011007 87 163 2.6 8.7 0.00 0.00 0.00 29 1014.3
20260906010512 87 186 4.3 11.3 0.00 0.00 0.00 28 1014.3
20260906010027 87 153 4.3 11.3 0.00 0.00 0.00 28 1014.3
20260906005518 87 186 6.1 11.3 0.00 0.00 0.00 28 1014.4
20260906005017 87 194 4.3 9.6 0.00 0.00 0.00 28 1014.4
20260906004531 88 186 5.2 12.2 0.00 0.00 0.00 28 1014.4
20260906004016 88 188 5.2 12.2 0.00 0.00 0.00 28 1014.3
20260906003514 88 182 4.3 10.4 0.00 0.00 0.00 27 1014.2
20260906003032 89 161 3.5 12.2 0.00 0.00 0.00 27 1014.2
20260906002519 89 223 6.1 12.2 0.00 0.00 0.00 26 1014.2
20260906002019 89 192 5.2 12.2 0.00 0.00 0.00 26 1014.1
20260906001537 89 148 6.1 14.8 0.00 0.00 0.00 26 1014.1
20260906001018 89 199 7.0 14.8 0.00 0.00 0.00 26 1014.1
20260906000518 89 167 5.2 10.4 0.00 0.00 0.00 26 1014.0
20260906000036 90 166 6.1 10.4 0.00 0.00 0.00 26 1013.9
20260905235512 90 136 5.2 10.4 0.00 0.00 0.00 26 1013.8
20260905235011 90 140 5.2 9.6 0.00 0.00 0.00 27 1013.8
20260905234528 90 139 3.5 9.6 0.00 0.00 0.00 26 1013.8
20260905234015 90 212 5.2 13.9 0.00 0.00 0.00 26 1013.8
20260905233514 90 134 5.2 13.9 0.00 0.00 0.00 26 1013.8
20260905233029 90 135 4.3 13.0 0.00 0.00 0.00 26 1013.8
20260905232516 90 153 6.1 12.2 0.00 0.00 0.00 26 1013.9
20260905232016 90 117 3.5 9.6 0.00 0.00 0.00 26 1013.9
20260905231531 91 119 6.1 10.4 0.00 0.00 0.00 26 1013.8
20260905231018 91 121 7.0 10.4 0.00 0.00 0.00 25 1013.7
20260905230517 91 107 4.3 13.0 0.00 0.00 0.00 24 1013.7
20260905230034 91 95 4.3 13.0 0.00 0.00 0.00 24 1013.7
20260905225519 92 105 5.2 16.5 0.00 0.00 0.00 24 1013.7
20260905225021 92 162 6.1 16.5 0.00 0.00 0.00 24 1013.6
20260905224600 92 93 7.0 10.4 0.00 0.00 0.00 25 1013.7
20260905224013 92 90 7.0 10.4 0.00 0.00 0.00 24 1013.6
20260905223513 92 101 4.3 9.6 0.00 0.00 0.00 23 1013.5
20260905223031 92 110 6.1 10.4 0.00 0.00 0.00 23 1013.6
20260905222517 91 134 3.5 10.4 0.00 0.00 0.00 24 1013.5
20260905222019 91 74 4.3 7.8 0.00 0.00 0.00 24 1013.5
20260905221530 91 119 5.2 8.7 0.00 0.00 0.00 24 1013.6
20260905221019 92 123 4.3 10.4 0.00 0.00 0.00 24 1013.7
20260905220505 92 105 6.1 10.4 0.00 0.00 0.00 24 1013.6
20260905220018 93 92 7.8 10.4 0.00 0.00 0.00 23 1013.6
20260905215509 93 93 7.0 12.2 0.00 0.00 0.00 22 1013.5
20260905215011 94 96 7.8 13.9 0.00 0.00 0.00 21 1013.5
20260905214523 96 76 5.2 13.9 0.00 0.00 0.00 21 1013.6
20260905214010 96 140 5.2 7.8 0.00 0.00 0.00 20 1013.6
20260905213514 95 62 3.5 7.8 0.00 0.00 0.00 21 1013.7
20260905213032 94 47 3.5 9.6 0.00 0.00 0.00 22 1013.7
20260905212517 94 88 4.3 9.6 0.00 0.00 0.00 22 1013.8